Year,Month,Day,Hour,Minute,Value (Times are PST for temperature in C)
2018,05,28,00,00,13.30
2018,05,28,00,01,13.20
2018,05,28,00,02,13.20
2018,05,28,00,03,13.20
2018,05,28,00,04,13.20
2018,05,28,00,05,13.20
2018,05,28,00,06,13.20
2018,05,28,00,07,13.10
2018,05,28,00,08,13.10
2018,05,28,00,09,13.10
2018,05,28,00,10,13.10
2018,05,28,00,11,13.00
2018,05,28,00,12,13.00
2018,05,28,00,13,12.90
2018,05,28,00,14,12.90
2018,05,28,00,15,12.90
2018,05,28,00,16,12.90
2018,05,28,00,17,13.00
2018,05,28,00,18,13.00
2018,05,28,00,19,13.10
2018,05,28,00,20,13.10
2018,05,28,00,21,13.10
2018,05,28,00,22,13.00
2018,05,28,00,23,13.00
2018,05,28,00,24,12.90
2018,05,28,00,25,12.90
2018,05,28,00,26,12.90
2018,05,28,00,27,12.80
2018,05,28,00,28,12.80
2018,05,28,00,29,12.70
2018,05,28,00,30,12.70
2018,05,28,00,31,12.70
2018,05,28,00,32,12.70
2018,05,28,00,33,12.70
2018,05,28,00,34,12.70
2018,05,28,00,35,12.60
2018,05,28,00,36,12.60
2018,05,28,00,37,12.60
2018,05,28,00,38,12.50
2018,05,28,00,39,12.50
2018,05,28,00,40,12.40
2018,05,28,00,41,12.30
2018,05,28,00,42,12.30
2018,05,28,00,43,12.20
2018,05,28,00,44,12.20
2018,05,28,00,45,12.30
2018,05,28,00,46,12.30
2018,05,28,00,47,12.20
2018,05,28,00,48,12.20
2018,05,28,00,49,12.20
2018,05,28,00,50,12.10
2018,05,28,00,51,12.10
2018,05,28,00,52,12.00
2018,05,28,00,53,11.90
2018,05,28,00,54,11.90
2018,05,28,00,55,11.90
2018,05,28,00,56,11.90
2018,05,28,00,57,11.90
2018,05,28,00,58,11.90
2018,05,28,00,59,11.80
2018,05,28,01,00,11.80
2018,05,28,01,01,11.80
2018,05,28,01,02,11.80
2018,05,28,01,03,11.80
2018,05,28,01,04,11.80
2018,05,28,01,05,11.90
2018,05,28,01,06,11.90
2018,05,28,01,07,11.90
2018,05,28,01,08,11.90
2018,05,28,01,09,11.90
2018,05,28,01,10,11.90
2018,05,28,01,11,11.80
2018,05,28,01,12,11.80
2018,05,28,01,13,11.80
2018,05,28,01,14,11.80
2018,05,28,01,15,11.80
2018,05,28,01,16,11.80
2018,05,28,01,17,11.80
2018,05,28,01,18,11.70
2018,05,28,01,19,11.70
2018,05,28,01,20,11.70
2018,05,28,01,21,11.70
2018,05,28,01,22,11.70
2018,05,28,01,23,11.70
2018,05,28,01,24,11.70
2018,05,28,01,25,11.70
2018,05,28,01,26,11.70
2018,05,28,01,27,11.70
2018,05,28,01,28,11.70
2018,05,28,01,29,11.70
2018,05,28,01,30,11.70
2018,05,28,01,31,11.60
2018,05,28,01,32,11.60
2018,05,28,01,33,11.60
2018,05,28,01,34,11.60
2018,05,28,01,35,11.60
2018,05,28,01,36,11.60
2018,05,28,01,37,11.60
2018,05,28,01,38,11.60
2018,05,28,01,39,11.70
2018,05,28,01,40,11.70
2018,05,28,01,41,11.70
2018,05,28,01,42,11.70
2018,05,28,01,43,11.70
2018,05,28,01,44,11.70
2018,05,28,01,45,11.70
2018,05,28,01,46,11.70
2018,05,28,01,47,11.70
2018,05,28,01,48,11.70
2018,05,28,01,49,11.70
2018,05,28,01,50,11.70
2018,05,28,01,51,11.60
2018,05,28,01,52,11.60
2018,05,28,01,53,11.50
2018,05,28,01,54,11.50
2018,05,28,01,55,11.50
2018,05,28,01,56,11.40
2018,05,28,01,57,11.40
2018,05,28,01,58,11.30
2018,05,28,01,59,11.30
2018,05,28,02,00,11.30
2018,05,28,02,01,11.30
2018,05,28,02,02,11.20
2018,05,28,02,03,11.20
2018,05,28,02,04,11.20
2018,05,28,02,05,11.20
2018,05,28,02,06,11.20
2018,05,28,02,07,11.20
2018,05,28,02,08,11.20
2018,05,28,02,09,11.10
2018,05,28,02,10,11.10
2018,05,28,02,11,11.10
2018,05,28,02,12,11.10
2018,05,28,02,13,11.10
2018,05,28,02,14,11.10
2018,05,28,02,15,11.10
2018,05,28,02,16,11.10
2018,05,28,02,17,11.00
2018,05,28,02,18,11.00
2018,05,28,02,19,11.00
2018,05,28,02,20,10.90
2018,05,28,02,21,10.90
2018,05,28,02,22,10.90
2018,05,28,02,23,10.90
2018,05,28,02,24,10.90
2018,05,28,02,25,10.90
2018,05,28,02,26,10.90
2018,05,28,02,27,10.90
2018,05,28,02,28,10.90
2018,05,28,02,29,10.90
2018,05,28,02,30,10.90
2018,05,28,02,31,10.90
2018,05,28,02,32,10.90
2018,05,28,02,33,10.90
2018,05,28,02,34,10.90
2018,05,28,02,35,10.80
2018,05,28,02,36,10.80
2018,05,28,02,37,10.80
2018,05,28,02,38,10.80
2018,05,28,02,39,10.80
2018,05,28,02,40,10.80
2018,05,28,02,41,10.80
2018,05,28,02,42,10.70
2018,05,28,02,43,10.70
2018,05,28,02,44,10.70
2018,05,28,02,45,10.70
2018,05,28,02,46,10.70
2018,05,28,02,47,10.70
2018,05,28,02,48,10.60
2018,05,28,02,49,10.60
2018,05,28,02,50,10.50
2018,05,28,02,51,10.50
2018,05,28,02,52,10.40
2018,05,28,02,53,10.40
2018,05,28,02,54,10.40
2018,05,28,02,55,10.40
2018,05,28,02,56,10.40
2018,05,28,02,57,10.40
2018,05,28,02,58,10.40
2018,05,28,02,59,10.30
2018,05,28,03,00,10.30
2018,05,28,03,01,10.30
2018,05,28,03,02,10.30
2018,05,28,03,03,10.30
2018,05,28,03,04,10.20
2018,05,28,03,05,10.20
2018,05,28,03,06,10.30
2018,05,28,03,07,10.20
2018,05,28,03,08,10.20
2018,05,28,03,09,10.20
2018,05,28,03,10,10.20
2018,05,28,03,11,10.20
2018,05,28,03,12,10.20
2018,05,28,03,13,10.20
2018,05,28,03,14,10.20
2018,05,28,03,15,10.20
2018,05,28,03,16,10.30
2018,05,28,03,17,10.30
2018,05,28,03,18,10.30
2018,05,28,03,19,10.30
2018,05,28,03,20,10.30
2018,05,28,03,21,10.30
2018,05,28,03,22,10.30
2018,05,28,03,23,10.30
2018,05,28,03,24,10.30
2018,05,28,03,25,10.30
2018,05,28,03,26,10.30
2018,05,28,03,27,10.30
2018,05,28,03,28,10.30
2018,05,28,03,29,10.30
2018,05,28,03,30,10.30
2018,05,28,03,31,10.20
2018,05,28,03,32,10.20
2018,05,28,03,33,10.20
2018,05,28,03,34,10.20
2018,05,28,03,35,10.20
2018,05,28,03,36,10.20
2018,05,28,03,37,10.20
2018,05,28,03,38,10.20
2018,05,28,03,39,10.20
2018,05,28,03,40,10.30
2018,05,28,03,41,10.30
2018,05,28,03,42,10.30
2018,05,28,03,43,10.40
2018,05,28,03,44,10.40
2018,05,28,03,45,10.40
2018,05,28,03,46,10.40
2018,05,28,03,47,10.50
2018,05,28,03,48,10.50
2018,05,28,03,49,10.60
2018,05,28,03,50,10.60
2018,05,28,03,51,10.70
2018,05,28,03,52,10.80
2018,05,28,03,53,10.80
2018,05,28,03,54,10.80
2018,05,28,03,55,10.90
2018,05,28,03,56,10.90
2018,05,28,03,57,10.90
2018,05,28,03,58,10.90
2018,05,28,03,59,10.80
2018,05,28,04,00,10.80
2018,05,28,04,01,10.80
2018,05,28,04,02,10.80
2018,05,28,04,03,10.80
2018,05,28,04,04,10.80
2018,05,28,04,05,10.90
2018,05,28,04,06,10.90
2018,05,28,04,07,10.80
2018,05,28,04,08,10.90
2018,05,28,04,09,10.80
2018,05,28,04,10,10.80
2018,05,28,04,11,10.80
2018,05,28,04,12,10.80
2018,05,28,04,13,10.80
2018,05,28,04,14,10.80
2018,05,28,04,15,10.80
2018,05,28,04,16,10.80
2018,05,28,04,17,10.80
2018,05,28,04,18,10.80
2018,05,28,04,19,10.80
2018,05,28,04,20,10.80
2018,05,28,04,21,10.80
2018,05,28,04,22,10.80
2018,05,28,04,23,10.80
2018,05,28,04,24,10.80
2018,05,28,04,25,10.80
2018,05,28,04,26,10.80
2018,05,28,04,27,10.80
2018,05,28,04,28,10.80
2018,05,28,04,29,10.80
2018,05,28,04,30,10.80
2018,05,28,04,31,10.80
2018,05,28,04,32,10.80
2018,05,28,04,33,10.80
2018,05,28,04,34,10.80
2018,05,28,04,35,10.80
2018,05,28,04,36,10.90
2018,05,28,04,37,10.90
2018,05,28,04,38,10.90
2018,05,28,04,39,10.90
2018,05,28,04,40,10.90
2018,05,28,04,41,10.90
2018,05,28,04,42,10.90
2018,05,28,04,43,10.90
2018,05,28,04,44,10.90
2018,05,28,04,45,10.90
2018,05,28,04,46,10.80
2018,05,28,04,47,10.80
2018,05,28,04,48,10.80
2018,05,28,04,49,10.80
2018,05,28,04,50,10.80
2018,05,28,04,51,10.80
2018,05,28,04,52,10.70
2018,05,28,04,53,10.70
2018,05,28,04,54,10.70
2018,05,28,04,55,10.60
2018,05,28,04,56,10.60
2018,05,28,04,57,10.50
2018,05,28,04,58,10.50
2018,05,28,04,59,10.40
2018,05,28,05,00,10.40
2018,05,28,05,01,10.30
2018,05,28,05,02,10.30
2018,05,28,05,03,10.30
2018,05,28,05,04,10.30
2018,05,28,05,05,10.40
2018,05,28,05,06,10.40
2018,05,28,05,07,10.40
2018,05,28,05,08,10.40
2018,05,28,05,09,10.40
2018,05,28,05,10,10.40
2018,05,28,05,11,10.40
2018,05,28,05,12,10.40
2018,05,28,05,13,10.50
2018,05,28,05,14,10.50
2018,05,28,05,15,10.60
2018,05,28,05,16,10.60
2018,05,28,05,17,10.60
2018,05,28,05,18,10.60
2018,05,28,05,19,10.60
2018,05,28,05,20,10.60
2018,05,28,05,21,10.60
2018,05,28,05,22,10.60
2018,05,28,05,23,10.60
2018,05,28,05,24,10.60
2018,05,28,05,25,10.60
2018,05,28,05,26,10.50
2018,05,28,05,27,10.50
2018,05,28,05,28,10.50
2018,05,28,05,29,10.60
2018,05,28,05,30,10.60
2018,05,28,05,31,10.60
2018,05,28,05,32,10.50
2018,05,28,05,33,10.60
2018,05,28,05,34,10.60
2018,05,28,05,35,10.60
2018,05,28,05,36,10.70
2018,05,28,05,37,10.70
2018,05,28,05,38,10.70
2018,05,28,05,39,10.70
2018,05,28,05,40,10.70
2018,05,28,05,41,10.70
2018,05,28,05,42,10.70
2018,05,28,05,43,10.70
2018,05,28,05,44,10.70
2018,05,28,05,45,10.70
2018,05,28,05,46,10.70
2018,05,28,05,47,10.70
2018,05,28,05,48,10.70
2018,05,28,05,49,10.70
2018,05,28,05,50,10.70
2018,05,28,05,51,10.70
2018,05,28,05,52,10.70
2018,05,28,05,53,10.70
2018,05,28,05,54,10.70
2018,05,28,05,55,10.70
2018,05,28,05,56,10.70
2018,05,28,05,57,10.70
2018,05,28,05,58,10.70
2018,05,28,05,59,10.70
2018,05,28,06,00,10.60
2018,05,28,06,01,10.60
2018,05,28,06,02,10.60
2018,05,28,06,03,10.60
2018,05,28,06,04,10.60
2018,05,28,06,05,10.50
2018,05,28,06,06,10.60
2018,05,28,06,07,10.60
2018,05,28,06,08,10.60
2018,05,28,06,09,10.60
2018,05,28,06,10,10.60
2018,05,28,06,11,10.60
2018,05,28,06,12,10.60
2018,05,28,06,13,10.60
2018,05,28,06,14,10.70
2018,05,28,06,15,10.70
2018,05,28,06,16,10.80
2018,05,28,06,17,10.80
2018,05,28,06,18,10.80
2018,05,28,06,19,10.90
2018,05,28,06,20,10.90
2018,05,28,06,21,10.90
2018,05,28,06,22,11.00
2018,05,28,06,23,11.00
2018,05,28,06,24,11.10
2018,05,28,06,25,11.10
2018,05,28,06,26,11.10
2018,05,28,06,27,11.10
2018,05,28,06,28,11.10
2018,05,28,06,29,11.10
2018,05,28,06,30,11.10
2018,05,28,06,31,11.10
2018,05,28,06,32,11.10
2018,05,28,06,33,11.20
2018,05,28,06,34,11.20
2018,05,28,06,35,11.20
2018,05,28,06,36,11.20
2018,05,28,06,37,11.20
2018,05,28,06,38,11.20
2018,05,28,06,39,11.20
2018,05,28,06,40,11.20
2018,05,28,06,41,11.20
2018,05,28,06,42,11.20
2018,05,28,06,43,11.20
2018,05,28,06,44,11.20
2018,05,28,06,45,11.20
2018,05,28,06,46,11.20
2018,05,28,06,47,11.20
2018,05,28,06,48,11.20
2018,05,28,06,49,11.20
2018,05,28,06,50,11.20
2018,05,28,06,51,11.20
2018,05,28,06,52,11.20
2018,05,28,06,53,11.20
2018,05,28,06,54,11.20
2018,05,28,06,55,11.20
2018,05,28,06,56,11.30
2018,05,28,06,57,11.30
2018,05,28,06,58,11.30
2018,05,28,06,59,11.30
2018,05,28,07,00,11.40
2018,05,28,07,01,11.40
2018,05,28,07,02,11.40
2018,05,28,07,03,11.40
2018,05,28,07,04,11.40
2018,05,28,07,05,11.50
2018,05,28,07,06,11.50
2018,05,28,07,07,11.60
2018,05,28,07,08,11.70
2018,05,28,07,09,11.70
2018,05,28,07,10,11.80
2018,05,28,07,11,11.80
2018,05,28,07,12,11.90
2018,05,28,07,13,11.90
2018,05,28,07,14,11.90
2018,05,28,07,15,11.90
2018,05,28,07,16,11.90
2018,05,28,07,17,11.90
2018,05,28,07,18,11.90
2018,05,28,07,19,11.90
2018,05,28,07,20,11.90
2018,05,28,07,21,12.00
2018,05,28,07,22,12.00
2018,05,28,07,23,12.10
2018,05,28,07,24,12.10
2018,05,28,07,25,12.10
2018,05,28,07,26,12.20
2018,05,28,07,27,12.20
2018,05,28,07,28,12.20
2018,05,28,07,29,12.20
2018,05,28,07,30,12.30
2018,05,28,07,31,12.30
2018,05,28,07,32,12.40
2018,05,28,07,33,12.40
2018,05,28,07,34,12.40
2018,05,28,07,35,12.40
2018,05,28,07,36,12.40
2018,05,28,07,37,12.40
2018,05,28,07,38,12.40
2018,05,28,07,39,12.40
2018,05,28,07,40,12.40
2018,05,28,07,41,12.40
2018,05,28,07,42,12.40
2018,05,28,07,43,12.40
2018,05,28,07,44,12.50
2018,05,28,07,45,12.50
2018,05,28,07,46,12.60
2018,05,28,07,47,12.60
2018,05,28,07,48,12.60
2018,05,28,07,49,12.70
2018,05,28,07,50,12.70
2018,05,28,07,51,12.70
2018,05,28,07,52,12.80
2018,05,28,07,53,12.80
2018,05,28,07,54,12.80
2018,05,28,07,55,12.90
2018,05,28,07,56,12.90
2018,05,28,07,57,13.00
2018,05,28,07,58,13.00
2018,05,28,07,59,13.10
2018,05,28,08,00,13.10
2018,05,28,08,01,13.10
2018,05,28,08,02,13.20
2018,05,28,08,03,13.20
2018,05,28,08,04,13.20
2018,05,28,08,05,13.30
2018,05,28,08,06,13.30
2018,05,28,08,07,13.40
2018,05,28,08,08,13.40
2018,05,28,08,09,13.40
2018,05,28,08,10,13.50
2018,05,28,08,11,13.50
2018,05,28,08,12,13.60
2018,05,28,08,13,13.60
2018,05,28,08,14,13.70
2018,05,28,08,15,13.70
2018,05,28,08,16,13.80
2018,05,28,08,17,13.80
2018,05,28,08,18,13.90
2018,05,28,08,19,13.90
2018,05,28,08,20,14.00
2018,05,28,08,21,14.00
2018,05,28,08,22,14.10
2018,05,28,08,23,14.10
2018,05,28,08,24,14.10
2018,05,28,08,25,14.20
2018,05,28,08,26,14.20
2018,05,28,08,27,14.20
2018,05,28,08,28,14.20
2018,05,28,08,29,14.30
2018,05,28,08,30,14.30
2018,05,28,08,31,14.30
2018,05,28,08,32,14.30
2018,05,28,08,33,14.30
2018,05,28,08,34,14.40
2018,05,28,08,35,14.40
2018,05,28,08,36,14.40
2018,05,28,08,37,14.40
2018,05,28,08,38,14.40
2018,05,28,08,39,14.50
2018,05,28,08,40,14.50
2018,05,28,08,41,14.50
2018,05,28,08,42,14.50
2018,05,28,08,43,14.60
2018,05,28,08,44,14.60
2018,05,28,08,45,14.60
2018,05,28,08,46,14.60
2018,05,28,08,47,14.60
2018,05,28,08,48,14.60
2018,05,28,08,49,14.70
2018,05,28,08,50,14.70
2018,05,28,08,51,14.70
2018,05,28,08,52,14.80
2018,05,28,08,53,14.80
2018,05,28,08,54,14.90
2018,05,28,08,55,14.90
2018,05,28,08,56,14.90
2018,05,28,08,57,15.00
2018,05,28,08,58,15.00
2018,05,28,08,59,15.10
2018,05,28,09,00,15.10
2018,05,28,09,01,15.10
2018,05,28,09,02,15.10
2018,05,28,09,03,15.20
2018,05,28,09,04,15.20
2018,05,28,09,05,15.20
2018,05,28,09,06,15.30
2018,05,28,09,07,15.30
2018,05,28,09,08,15.30
2018,05,28,09,09,15.40
2018,05,28,09,10,15.40
2018,05,28,09,11,15.50
2018,05,28,09,12,15.50
2018,05,28,09,13,15.50
2018,05,28,09,14,15.50
2018,05,28,09,15,15.50
2018,05,28,09,16,15.40
2018,05,28,09,17,15.40
2018,05,28,09,18,15.40
2018,05,28,09,19,15.40
2018,05,28,09,20,15.50
2018,05,28,09,21,15.50
2018,05,28,09,22,15.60
2018,05,28,09,23,15.60
2018,05,28,09,24,15.60
2018,05,28,09,25,15.60
2018,05,28,09,26,15.60
2018,05,28,09,27,15.70
2018,05,28,09,28,15.70
2018,05,28,09,29,15.80
2018,05,28,09,30,15.80
2018,05,28,09,31,15.90
2018,05,28,09,32,16.00
2018,05,28,09,33,16.10
2018,05,28,09,34,16.10
2018,05,28,09,35,16.10
2018,05,28,09,36,16.10
2018,05,28,09,37,16.10
2018,05,28,09,38,16.10
2018,05,28,09,39,16.10
2018,05,28,09,40,16.10
2018,05,28,09,41,16.00
2018,05,28,09,42,16.00
2018,05,28,09,43,16.00
2018,05,28,09,44,15.90
2018,05,28,09,45,15.90
2018,05,28,09,46,15.90
2018,05,28,09,47,15.90
2018,05,28,09,48,15.90
2018,05,28,09,49,15.90
2018,05,28,09,50,15.90
2018,05,28,09,51,15.90
2018,05,28,09,52,16.00
2018,05,28,09,53,16.10
2018,05,28,09,54,16.20
2018,05,28,09,55,16.30
2018,05,28,09,56,16.30
2018,05,28,09,57,16.40
2018,05,28,09,58,16.50
2018,05,28,09,59,16.60
2018,05,28,10,00,16.60
2018,05,28,10,01,16.60
2018,05,28,10,02,16.60
2018,05,28,10,03,16.60
2018,05,28,10,04,16.60
2018,05,28,10,05,16.70
2018,05,28,10,06,16.80
2018,05,28,10,07,16.80
2018,05,28,10,08,16.90
2018,05,28,10,09,17.00
2018,05,28,10,10,17.00
2018,05,28,10,11,17.00
2018,05,28,10,12,17.00
2018,05,28,10,13,16.90
2018,05,28,10,14,16.90
2018,05,28,10,15,16.90
2018,05,28,10,16,16.90
2018,05,28,10,17,16.90
2018,05,28,10,18,16.90
2018,05,28,10,19,17.00
2018,05,28,10,20,17.10
2018,05,28,10,21,17.10
2018,05,28,10,22,17.10
2018,05,28,10,23,17.10
2018,05,28,10,24,17.10
2018,05,28,10,25,17.10
2018,05,28,10,26,17.20
2018,05,28,10,27,17.20
2018,05,28,10,28,17.30
2018,05,28,10,29,17.30
2018,05,28,10,30,17.30
2018,05,28,10,31,17.20
2018,05,28,10,32,17.20
2018,05,28,10,33,17.10
2018,05,28,10,34,17.10
2018,05,28,10,35,17.10
2018,05,28,10,36,17.00
2018,05,28,10,37,17.00
2018,05,28,10,38,16.90
2018,05,28,10,39,16.90
2018,05,28,10,40,16.80
2018,05,28,10,41,16.80
2018,05,28,10,42,16.80
2018,05,28,10,43,16.80
2018,05,28,10,44,16.90
2018,05,28,10,45,16.90
2018,05,28,10,46,16.90
2018,05,28,10,47,16.90
2018,05,28,10,48,16.80
2018,05,28,10,49,16.80
2018,05,28,10,50,16.90
2018,05,28,10,51,17.00
2018,05,28,10,52,17.00
2018,05,28,10,53,17.00
2018,05,28,10,54,17.00
2018,05,28,10,55,17.00
2018,05,28,10,56,17.00
2018,05,28,10,57,16.90
2018,05,28,10,58,16.90
2018,05,28,10,59,16.90
2018,05,28,11,00,16.90
2018,05,28,11,01,16.90
2018,05,28,11,02,17.00
2018,05,28,11,03,17.00
2018,05,28,11,04,16.90
2018,05,28,11,05,16.90
2018,05,28,11,06,16.90
2018,05,28,11,07,16.80
2018,05,28,11,08,16.80
2018,05,28,11,09,16.70
2018,05,28,11,10,16.70
2018,05,28,11,11,16.60
2018,05,28,11,12,16.60
2018,05,28,11,13,16.60
2018,05,28,11,14,16.60
2018,05,28,11,15,16.60
2018,05,28,11,16,16.70
2018,05,28,11,17,16.70
2018,05,28,11,18,16.80
2018,05,28,11,19,16.90
2018,05,28,11,20,17.00
2018,05,28,11,21,17.10
2018,05,28,11,22,17.20
2018,05,28,11,23,17.40
2018,05,28,11,24,17.50
2018,05,28,11,25,17.60
2018,05,28,11,26,17.70
2018,05,28,11,27,17.80
2018,05,28,11,28,17.90
2018,05,28,11,29,18.00
2018,05,28,11,30,18.10
2018,05,28,11,31,18.20
2018,05,28,11,32,18.10
2018,05,28,11,33,18.10
2018,05,28,11,34,18.00
2018,05,28,11,35,17.90
2018,05,28,11,36,17.80
2018,05,28,11,37,17.80
2018,05,28,11,38,17.70
2018,05,28,11,39,17.70
2018,05,28,11,40,17.60
2018,05,28,11,41,17.50
2018,05,28,11,42,17.50
2018,05,28,11,43,17.40
2018,05,28,11,44,17.30
2018,05,28,11,45,17.30
2018,05,28,11,46,17.30
2018,05,28,11,47,17.30
2018,05,28,11,48,17.30
2018,05,28,11,49,17.30
2018,05,28,11,50,17.30
2018,05,28,11,51,17.30
2018,05,28,11,52,17.30
2018,05,28,11,53,17.30
2018,05,28,11,54,17.30
2018,05,28,11,55,17.30
2018,05,28,11,56,17.40
2018,05,28,11,57,17.50
2018,05,28,11,58,17.50
2018,05,28,11,59,17.60
2018,05,28,12,00,17.70
2018,05,28,12,01,17.80
2018,05,28,12,02,18.00
2018,05,28,12,03,18.10
2018,05,28,12,04,18.20
2018,05,28,12,05,18.30
2018,05,28,12,06,18.40
2018,05,28,12,07,18.40
2018,05,28,12,08,18.50
2018,05,28,12,09,18.60
2018,05,28,12,10,18.60
2018,05,28,12,11,18.60
2018,05,28,12,12,18.60
2018,05,28,12,13,18.60
2018,05,28,12,14,18.70
2018,05,28,12,15,18.70
2018,05,28,12,16,18.70
2018,05,28,12,17,18.70
2018,05,28,12,18,18.70
2018,05,28,12,19,18.70
2018,05,28,12,20,18.80
2018,05,28,12,21,18.90
2018,05,28,12,22,18.90
2018,05,28,12,23,18.90
2018,05,28,12,24,19.00
2018,05,28,12,25,19.00
2018,05,28,12,26,19.00
2018,05,28,12,27,19.00
2018,05,28,12,28,19.00
2018,05,28,12,29,19.00
2018,05,28,12,30,19.10
2018,05,28,12,31,19.10
2018,05,28,12,32,19.20
2018,05,28,12,33,19.30
2018,05,28,12,34,19.40
2018,05,28,12,35,19.40
2018,05,28,12,36,19.40
2018,05,28,12,37,19.30
2018,05,28,12,38,19.20
2018,05,28,12,39,19.00
2018,05,28,12,40,18.90
2018,05,28,12,41,18.70
2018,05,28,12,42,18.50
2018,05,28,12,43,18.30
2018,05,28,12,44,18.20
2018,05,28,12,45,18.10
2018,05,28,12,46,18.10
2018,05,28,12,47,18.00
2018,05,28,12,48,18.00
2018,05,28,12,49,17.90
2018,05,28,12,50,17.90
2018,05,28,12,51,17.90
2018,05,28,12,52,17.90
2018,05,28,12,53,17.90
2018,05,28,12,54,17.90
2018,05,28,12,55,17.90
2018,05,28,12,56,17.90
2018,05,28,12,57,17.90
2018,05,28,12,58,17.90
2018,05,28,12,59,17.90
2018,05,28,13,00,17.90
2018,05,28,13,01,17.90
2018,05,28,13,02,17.90
2018,05,28,13,03,17.90
2018,05,28,13,04,17.90
2018,05,28,13,05,17.90
2018,05,28,13,06,17.90
2018,05,28,13,07,17.90
2018,05,28,13,08,18.00
2018,05,28,13,09,18.00
2018,05,28,13,10,18.10
2018,05,28,13,11,18.20
2018,05,28,13,12,18.30
2018,05,28,13,13,18.40
2018,05,28,13,14,18.50
2018,05,28,13,15,18.70
2018,05,28,13,16,18.80
2018,05,28,13,17,18.90
2018,05,28,13,18,19.00
2018,05,28,13,19,19.10
2018,05,28,13,20,19.20
2018,05,28,13,21,19.30
2018,05,28,13,22,19.30
2018,05,28,13,23,19.20
2018,05,28,13,24,19.10
2018,05,28,13,25,19.00
2018,05,28,13,26,18.80
2018,05,28,13,27,18.70
2018,05,28,13,28,18.50
2018,05,28,13,29,18.40
2018,05,28,13,30,18.20
2018,05,28,13,31,18.10
2018,05,28,13,32,18.10
2018,05,28,13,33,18.10
2018,05,28,13,34,18.10
2018,05,28,13,35,18.20
2018,05,28,13,36,18.30
2018,05,28,13,37,18.40
2018,05,28,13,38,18.50
2018,05,28,13,39,18.50
2018,05,28,13,40,18.50
2018,05,28,13,41,18.50
2018,05,28,13,42,18.50
2018,05,28,13,43,18.50
2018,05,28,13,44,18.50
2018,05,28,13,45,18.50
2018,05,28,13,46,18.60
2018,05,28,13,47,18.70
2018,05,28,13,48,18.80
2018,05,28,13,49,19.00
2018,05,28,13,50,19.10
2018,05,28,13,51,19.30
2018,05,28,13,52,19.40
2018,05,28,13,53,19.40
2018,05,28,13,54,19.40
2018,05,28,13,55,19.30
2018,05,28,13,56,19.30
2018,05,28,13,57,19.10
2018,05,28,13,58,19.00
2018,05,28,13,59,18.90
2018,05,28,14,00,18.80
2018,05,28,14,01,18.80
2018,05,28,14,02,18.80
2018,05,28,14,03,18.80
2018,05,28,14,04,18.80
2018,05,28,14,05,18.80
2018,05,28,14,06,18.80
2018,05,28,14,07,18.80
2018,05,28,14,08,18.70
2018,05,28,14,09,18.70
2018,05,28,14,10,18.70
2018,05,28,14,11,18.70
2018,05,28,14,12,18.70
2018,05,28,14,13,18.70
2018,05,28,14,14,18.70
2018,05,28,14,15,18.70
2018,05,28,14,16,18.70
2018,05,28,14,17,18.70
2018,05,28,14,18,18.70
2018,05,28,14,19,18.60
2018,05,28,14,20,18.70
2018,05,28,14,21,18.70
2018,05,28,14,22,18.70
2018,05,28,14,23,18.70
2018,05,28,14,24,18.80
2018,05,28,14,25,18.80
2018,05,28,14,26,18.70
2018,05,28,14,27,18.70
2018,05,28,14,28,18.70
2018,05,28,14,29,18.70
2018,05,28,14,30,18.70
2018,05,28,14,31,18.80
2018,05,28,14,32,18.80
2018,05,28,14,33,18.90
2018,05,28,14,34,18.90
2018,05,28,14,35,19.00
2018,05,28,14,36,19.00
2018,05,28,14,37,19.00
2018,05,28,14,38,19.00
2018,05,28,14,39,18.90
2018,05,28,14,40,18.80
2018,05,28,14,41,18.90
2018,05,28,14,42,19.00
2018,05,28,14,43,19.10
2018,05,28,14,44,19.30
2018,05,28,14,45,19.60
2018,05,28,14,46,19.90
2018,05,28,14,47,20.10
2018,05,28,14,48,20.30
2018,05,28,14,49,20.40
2018,05,28,14,50,20.30
2018,05,28,14,51,20.30
2018,05,28,14,52,20.40
2018,05,28,14,53,20.60
2018,05,28,14,54,20.60
2018,05,28,14,55,20.70
2018,05,28,14,56,20.70
2018,05,28,14,57,20.80
2018,05,28,14,58,20.90
2018,05,28,14,59,21.00
2018,05,28,15,00,21.00
2018,05,28,15,01,21.00
2018,05,28,15,02,21.10
2018,05,28,15,03,21.10
2018,05,28,15,04,21.00
2018,05,28,15,05,21.00
2018,05,28,15,06,20.90
2018,05,28,15,07,20.80
2018,05,28,15,08,20.80
2018,05,28,15,09,20.80
2018,05,28,15,10,20.80
2018,05,28,15,11,20.80
2018,05,28,15,12,20.70
2018,05,28,15,13,20.70
2018,05,28,15,14,20.60
2018,05,28,15,15,20.60
2018,05,28,15,16,20.70
2018,05,28,15,17,20.70
2018,05,28,15,18,20.70
2018,05,28,15,19,20.80
2018,05,28,15,20,20.80
2018,05,28,15,21,20.80
2018,05,28,15,22,20.90
2018,05,28,15,23,21.00
2018,05,28,15,24,21.10
2018,05,28,15,25,21.00
2018,05,28,15,26,21.00
2018,05,28,15,27,21.10
2018,05,28,15,28,21.20
2018,05,28,15,29,21.20
2018,05,28,15,30,21.20
2018,05,28,15,31,21.20
2018,05,28,15,32,21.20
2018,05,28,15,33,21.30
2018,05,28,15,34,21.40
2018,05,28,15,35,21.50
2018,05,28,15,36,21.50
2018,05,28,15,37,21.50
2018,05,28,15,38,21.50
2018,05,28,15,39,21.50
2018,05,28,15,40,21.60
2018,05,28,15,41,21.40
2018,05,28,15,42,21.20
2018,05,28,15,43,21.00
2018,05,28,15,44,20.90
2018,05,28,15,45,21.00
2018,05,28,15,46,21.20
2018,05,28,15,47,21.20
2018,05,28,15,48,21.20
2018,05,28,15,49,21.20
2018,05,28,15,50,21.10
2018,05,28,15,51,21.00
2018,05,28,15,52,20.90
2018,05,28,15,53,21.00
2018,05,28,15,54,21.10
2018,05,28,15,55,21.20
2018,05,28,15,56,21.30
2018,05,28,15,57,21.30
2018,05,28,15,58,21.40
2018,05,28,15,59,21.40
2018,05,28,16,00,21.50
2018,05,28,16,01,21.60
2018,05,28,16,02,21.60
2018,05,28,16,03,21.70
2018,05,28,16,04,21.80
2018,05,28,16,05,21.80
2018,05,28,16,06,21.70
2018,05,28,16,07,21.50
2018,05,28,16,08,21.40
2018,05,28,16,09,21.30
2018,05,28,16,10,21.20
2018,05,28,16,11,21.20
2018,05,28,16,12,21.00
2018,05,28,16,13,20.80
2018,05,28,16,14,20.50
2018,05,28,16,15,20.40
2018,05,28,16,16,20.40
2018,05,28,16,17,20.50
2018,05,28,16,18,20.40
2018,05,28,16,19,20.40
2018,05,28,16,20,20.40
2018,05,28,16,21,20.50
2018,05,28,16,22,20.60
2018,05,28,16,23,20.70
2018,05,28,16,24,20.60
2018,05,28,16,25,20.70
2018,05,28,16,26,20.80
2018,05,28,16,27,20.80
2018,05,28,16,28,20.70
2018,05,28,16,29,20.60
2018,05,28,16,30,20.60
2018,05,28,16,31,20.60
2018,05,28,16,32,20.60
2018,05,28,16,33,20.60
2018,05,28,16,34,20.50
2018,05,28,16,35,20.30
2018,05,28,16,36,20.20
2018,05,28,16,37,20.20
2018,05,28,16,38,20.20
2018,05,28,16,39,20.40
2018,05,28,16,40,20.30
2018,05,28,16,41,20.10
2018,05,28,16,42,20.20
2018,05,28,16,43,20.20
2018,05,28,16,44,20.30
2018,05,28,16,45,20.30
2018,05,28,16,46,20.30
2018,05,28,16,47,20.20
2018,05,28,16,48,20.00
2018,05,28,16,49,19.80
2018,05,28,16,50,19.80
2018,05,28,16,51,19.80
2018,05,28,16,52,19.80
2018,05,28,16,53,20.00
2018,05,28,16,54,20.10
2018,05,28,16,55,20.00
2018,05,28,16,56,20.00
2018,05,28,16,57,20.00
2018,05,28,16,58,19.90
2018,05,28,16,59,19.80
2018,05,28,17,00,19.80
2018,05,28,17,01,19.70
2018,05,28,17,02,19.70
2018,05,28,17,03,19.70
2018,05,28,17,04,19.80
2018,05,28,17,05,19.90
2018,05,28,17,06,19.80
2018,05,28,17,07,19.80
2018,05,28,17,08,19.80
2018,05,28,17,09,19.80
2018,05,28,17,10,19.70
2018,05,28,17,11,19.60
2018,05,28,17,12,19.50
2018,05,28,17,13,19.40
2018,05,28,17,14,19.30
2018,05,28,17,15,19.40
2018,05,28,17,16,19.50
2018,05,28,17,17,19.60
2018,05,28,17,18,19.70
2018,05,28,17,19,19.70